Weather History for Albuquerque Double Eagle, NM

Change the Weather History Date:

Friday, October 14, 2011

  Actual Average Record
Temperature  
Mean Temperature 62 °F -  
Max Temperature 75 °F - - ()
Min Temperature 48 °F - - ()
Degree Days  
Heating Degree Days 4    
Growing Degree Days 12 (Base 50)    
Moisture  
Dew Point 22 °F    
Average Humidity 25    
Maximum Humidity 35    
Minimum Humidity 14    
Precipitation  
Precipitation 0.00 in - - ()
Sea Level Pressure  
Sea Level Pressure 30.15 in    
Wind  
Wind Speed 9 mph (NW)    
Max Wind Speed 17 mph    
Max Gust Speed 40 mph    
Visibility 10 miles    
Events      
T = Trace of Precipitation, MM = Missing Value Source: NWS Daily Summary

Daily Weather History Graph

Daily Weather History Graph

Search for Another Location

Airport:

Trip Planner

Search our weather history database for the weather conditions in past years. The results will help you decide how hot, cold, wet, or windy it might be!

Date:

Astronomy

Oct. 14, 2011 Rise Set
Actual Time 7:12 AM MDT 6:33 PM MDT
Civil Twilight 6:46 AM MDT 6:59 PM MDT
Nautical Twilight 6:17 AM MDT 7:28 PM MDT
Astronomical Twilight 5:47 AM MDT 7:57 PM MDT
Moon 7:57 PM MDT (10/14) 9:35 AM MDT (10/14)
Length of Visible Light 12h 12m
Length of Day
11h 21m
Waning Gibbous, 94% of the Moon is Illuminated
Oct 14
Waning Gibbous
Oct 19
Last Quarter
Oct 26
New
Nov 2
First Quarter
Nov 10
Full

Hourly Weather History & Observations

Time (MDT) Temp. Dew Point Humidity Pressure Visibility Wind Dir Wind Speed Gust Speed Precip Events Conditions
12:15 AM 55.4 °F 15.8 °F 21% 30.13 in 10.0 mi NNW 12.7 mph - N/A   Clear
12:35 AM 55.4 °F 15.8 °F 21% 30.13 in 10.0 mi NNW 12.7 mph - N/A   Clear
12:55 AM 55.4 °F 17.6 °F 23% 30.13 in 10.0 mi NNW 13.8 mph - N/A   Clear
1:15 AM 55.4 °F 17.6 °F 23% 30.13 in 10.0 mi NNW 12.7 mph - N/A   Clear
1:35 AM 55.4 °F 19.4 °F 25% 30.13 in 10.0 mi NW 10.4 mph - N/A   Clear
1:55 AM 53.6 °F 19.4 °F 26% 30.14 in 10.0 mi WNW 10.4 mph - N/A   Clear
2:15 AM 53.6 °F 19.4 °F 26% 30.14 in 10.0 mi WNW 10.4 mph - N/A   Clear
2:35 AM 53.6 °F 17.6 °F 24% 30.14 in 10.0 mi Calm Calm - N/A   Clear
2:55 AM 55.4 °F 17.6 °F 23% 30.14 in 10.0 mi WNW 8.1 mph - N/A   Clear
3:15 AM 50.0 °F 19.4 °F 30% 30.13 in 10.0 mi Calm Calm - N/A   Clear
3:35 AM 48.2 °F 19.4 °F 32% 30.13 in 10.0 mi ENE 3.5 mph - N/A   Clear
3:55 AM 48.2 °F 19.4 °F 32% 30.13 in 10.0 mi WNW 8.1 mph - N/A   Clear
4:15 AM 48.2 °F 19.4 °F 32% 30.13 in 10.0 mi NNW 5.8 mph - N/A   Clear
4:35 AM 48.2 °F 19.4 °F 32% 30.13 in 10.0 mi WNW 3.5 mph - N/A   Clear
4:55 AM 48.2 °F 21.2 °F 34% 30.13 in 10.0 mi NW 9.2 mph - N/A   Clear
5:15 AM 50.0 °F 21.2 °F 32% 30.13 in 10.0 mi NW 9.2 mph - N/A   Clear
5:35 AM 53.6 °F 19.4 °F 26% 30.14 in 10.0 mi NNW 11.5 mph - N/A   Clear
5:50 AM 51.8 °F 19.4 °F 28% 30.14 in 10.0 mi NW 9.2 mph - N/A   Clear
7:50 AM 50.0 °F 23.0 °F 35% 30.17 in 10.0 mi North 4.6 mph - N/A   Clear
8:50 AM 55.4 °F 23.0 °F 29% 30.20 in 10.0 mi East 3.5 mph - N/A   Clear
9:50 AM 59.0 °F 23.0 °F 25% 30.21 in 10.0 mi Calm Calm - N/A   Clear
10:50 AM 64.4 °F 24.8 °F 22% 30.21 in 10.0 mi SE 3.5 mph - N/A   Clear
11:50 AM 71.6 °F 24.8 °F 17% 30.20 in 10.0 mi NW 9.2 mph - N/A   Clear
12:50 PM 71.6 °F 24.8 °F 17% 30.17 in 10.0 mi NW 10.4 mph 40.3 mph N/A   Clear
1:50 PM 75.2 °F 24.8 °F 15% 30.14 in 10.0 mi NW 13.8 mph 25.3 mph N/A   Clear
2:50 PM 75.2 °F 24.8 °F 15% 30.12 in 10.0 mi NNW 17.3 mph 24.2 mph N/A   Clear
3:50 PM 75.2 °F 24.8 °F 15% 30.12 in 10.0 mi NW 12.7 mph - N/A   Clear
4:50 PM 75.2 °F 23.0 °F 14% 30.12 in 10.0 mi NW 13.8 mph - N/A   Clear
6:50 PM 68.0 °F 24.8 °F 20% 30.13 in 10.0 mi NW 11.5 mph - N/A   Clear
7:50 PM 62.6 °F 24.8 °F 24% 30.15 in 10.0 mi WNW 10.4 mph - N/A   Clear
8:50 PM 60.8 °F 24.8 °F 25% 30.16 in 10.0 mi WNW 9.2 mph - N/A   Clear
10:15 PM 59.0 °F 24.8 °F 27% 30.19 in 10.0 mi NW 6.9 mph - N/A   Clear
10:35 PM 59.0 °F 24.8 °F 27% 30.19 in 10.0 mi WNW 5.8 mph - N/A   Clear
11:15 PM 55.4 °F 24.8 °F 31% 30.20 in 10.0 mi NNW 5.8 mph - N/A   Clear
11:35 PM 53.6 °F 26.6 °F 35% 30.20 in 10.0 mi North 9.2 mph - N/A   Clear
11:55 PM 59.0 °F 26.6 °F 29% 30.20 in 10.0 mi North 8.1 mph - N/A   Clear